Stations météo

réclame
Mon MeteoGroup
Waddington, Grande-Bretagne (3377): Température de l'air & dewpoint: 22.10.2020 15:00:00 - 28.10.2020 15:00:00 (GMT)Waddington, Grande-Bretagne (3377): Température de l'air -20cm & Température de l'air -100cm: 22.10.2020 15:00:00 - 28.10.2020 15:00:00 (GMT)Waddington, Grande-Bretagne (3377): Vitesse du vent & gusts: 22.10.2020 15:00:00 - 28.10.2020 15:00:00 (GMT)Waddington, Grande-Bretagne (3377): Direction du vent: 22.10.2020 15:00:00 - 28.10.2020 15:00:00 (GMT)Waddington, Grande-Bretagne (3377): reduced air pressure: 22.10.2020 15:00:00 - 28.10.2020 15:00:00 (GMT)Waddington, Grande-Bretagne (3377): visibility: 22.10.2020 15:00:00 - 28.10.2020 15:00:00 (GMT)Waddington, Grande-Bretagne (3377): Ensoleillement: 22.10.2020 15:00:00 - 28.10.2020 15:00:00 (GMT)Waddington, Grande-Bretagne (3377): Quantités de précipitations: 22.10.2020 15:00:00 - 28.10.2020 15:00:00 (GMT)
Date & Time tt [°C] td [°C] tt -20cm [°C] tt -100cm [°C] ff [km/h] ff [knt] fx [km/h] fx [knt] dd ppp [hPa] vv [km] sd [min] rr [mm]
28.10.2020 15:00:00 - - - - - - - - - - - - -
28.10.2020 14:00:00 11,4 6,1 - - 34 18 48 26 SW 998,1 10 0 0,0
28.10.2020 13:00:00 11,0 6,4 - - 29 16 48 26 SW 998,2 10 30 0,0
28.10.2020 12:00:00 10,8 5,9 - - 28 15 46 25 SW 998,4 10 54 0,0
28.10.2020 11:00:00 10,9 5,8 - - 31 17 52 28 SW 998,4 10 60 0,0
28.10.2020 10:00:00 9,6 6,2 - - 34 18 50 27 SW 998,2 10 12 0,0
28.10.2020 09:00:00 8,0 5,8 9,7 11,7 28 15 - - SW 997,7 10 0 0,0
28.10.2020 08:00:00 7,6 5,4 - - 29 16 - - SW 997,5 10 18 0,0
28.10.2020 07:00:00 7,0 4,8 - - 29 16 - - SSW 997,0 29 0 0,0
28.10.2020 06:00:00 6,9 4,6 - - 28 15 - - SW 996,4 30 0 0,0
28.10.2020 05:00:00 7,1 4,7 - - 34 18 48 26 SSW 996,2 27 0 0,0
28.10.2020 04:00:00 7,4 5,2 - - 29 16 - - SSW 996,2 25 0 0,0
28.10.2020 03:00:00 7,5 5,2 - - 24 13 - - SSW 996,1 22 0 0,0
28.10.2020 02:00:00 7,7 4,9 - - 24 13 - - SW 996,2 10 0 0,0
28.10.2020 01:00:00 7,6 4,9 - - 22 12 - - SW 996,0 20 0 0,0
28.10.2020 00:00:00 7,4 4,6 - - 24 13 - - SW 996,2 20 - 0,0
27.10.2020 23:00:00 7,3 5,1 - - 26 14 - - SW 995,6 18 0 0,0
27.10.2020 22:00:00 7,4 4,3 - - 16 9 - - SW 995,1 21 0 0,0
27.10.2020 21:00:00 7,8 5,0 - - 21 11 - - SW 994,5 18 0 0,0
27.10.2020 20:00:00 8,3 5,5 - - 22 12 - - SW 993,7 21 0 0,0
27.10.2020 19:00:00 8,8 6,9 - - 21 11 - - SW 992,7 24 0 0,0
27.10.2020 18:00:00 9,4 7,1 - - 26 14 - - W 991,8 15 0 0,2
27.10.2020 17:00:00 10,8 8,3 - - 24 13 48 26 W 990,9 40 0 0,2
27.10.2020 16:00:00 11,4 10,9 - - 18 10 - - WSW 989,6 10 0 1,8
27.10.2020 15:00:00 10,7 10,3 - - 29 16 - - S 989,5 5 0 0,6
27.10.2020 14:00:00 9,8 9,3 - - 34 18 48 26 SSE 990,4 5 0 0,2
27.10.2020 13:00:00 9,4 8,8 - - 34 18 - - SSE 991,9 6 0 0,4
27.10.2020 12:00:00 9,0 8,4 - - 29 16 - - SSE 993,4 5 0 0,4
27.10.2020 11:00:00 8,6 7,8 - - 24 13 - - S 995,3 4,6 0 0,2
27.10.2020 10:00:00 8,6 7,2 - - 26 14 - - S 996,0 10 0 0,2
27.10.2020 09:00:00 8,0 6,7 9,7 12,0 26 14 - - S 996,4 25 0 0,0
27.10.2020 08:00:00 7,1 5,6 - - 16 9 - - SSW 997,3 10 0 0,0
27.10.2020 07:00:00 6,4 5,2 - - 15 8 - - SSW 997,2 24 0 0,0
27.10.2020 06:00:00 6,1 4,8 - - 21 11 - - SW 997,5 24 0 0,0
27.10.2020 05:00:00 5,9 4,7 - - 21 11 - - SSW 997,8 10 0 0,0
27.10.2020 04:00:00 6,1 5,1 - - 16 9 - - SW 997,8 23 0 0,0
27.10.2020 03:00:00 6,1 4,9 - - 21 11 - - SW 998,0 10 0 0,0
27.10.2020 02:00:00 6,2 5,0 - - 22 12 - - SW 998,0 23 0 0,0
27.10.2020 01:00:00 6,4 5,0 - - 16 9 - - SW 998,1 24 0 0,0
27.10.2020 00:00:00 7,0 5,1 - - 16 9 - - SW 998,0 10 - 0,0
26.10.2020 23:00:00 7,8 5,5 - - 18 10 - - WSW 998,0 24 0 0,0
26.10.2020 22:00:00 7,6 5,6 - - 18 10 - - SW 997,8 22 0 0,0
26.10.2020 21:00:00 7,9 5,7 - - 21 11 - - SW 997,2 22 0 0,0
26.10.2020 20:00:00 8,1 5,8 - - 16 9 - - SW 996,9 23 0 0,0
26.10.2020 19:00:00 8,7 5,7 - - 18 10 - - SW 996,4 25 0 0,0
26.10.2020 18:00:00 8,8 6,4 - - 16 9 - - SW 996,0 22 0 0,0
26.10.2020 17:00:00 8,5 6,7 - - 13 7 - - WSW 995,5 10 0 0,4
26.10.2020 16:00:00 8,8 6,0 - - 18 10 - - W 995,4 10 0 1,8
26.10.2020 15:00:00 10,7 8,6 - - 16 9 - - W 994,6 5 6 0,2
26.10.2020 14:00:00 10,3 8,5 - - 15 8 - - WSW 994,1 35 6 0,2
26.10.2020 13:00:00 9,5 7,1 - - 22 12 - - W 993,7 7 0 2,2
26.10.2020 12:00:00 10,6 8,3 - - 24 13 46 25 WSW 993,4 10 0 0,4
26.10.2020 11:00:00 10,3 7,7 - - 29 16 - - SW 993,1 10 6 0,0
26.10.2020 10:00:00 9,4 6,7 - - 28 15 46 25 SW 992,9 10 30 0,0
26.10.2020 09:00:00 8,0 6,1 10,2 12,2 28 15 - - SW 992,7 10 18 0,0
26.10.2020 08:00:00 7,0 5,4 - - 24 13 - - SSW 992,7 10 24 0,0
26.10.2020 07:00:00 6,0 4,6 - - 22 12 - - SSW 992,4 10 0 0,0
26.10.2020 06:00:00 6,3 5,1 - - 22 12 - - SSW 992,2 10 0 0,0
26.10.2020 05:00:00 5,8 4,7 - - 21 11 - - SSW 992,2 10 0 0,0
26.10.2020 04:00:00 6,2 4,9 - - 21 11 - - SSW 992,6 28 0 0,0
26.10.2020 03:00:00 6,5 5,0 - - 22 12 - - SSW 992,5 30 0 0,0
26.10.2020 02:00:00 6,5 5,0 - - 22 12 - - SSW 993,1 10 0 0,0
26.10.2020 01:00:00 6,6 4,9 - - 22 12 - - SSW 993,3 30 0 0,0
26.10.2020 00:00:00 6,9 5,2 - - 22 12 - - SSW 993,3 30 - 0,0
25.10.2020 23:00:00 7,4 5,3 - - 24 13 - - SSW 993,7 30 0 0,0
25.10.2020 22:00:00 7,3 5,1 - - 21 11 - - SSW 993,8 35 0 0,0
25.10.2020 21:00:00 8,0 5,2 - - 22 12 - - SSW 994,1 10 0 0,0
25.10.2020 20:00:00 7,9 5,0 - - 21 11 - - SSW 993,9 10 0 0,0
25.10.2020 19:00:00 8,0 5,3 - - 24 13 - - SSW 993,9 10 0 0,0
25.10.2020 18:00:00 8,8 5,8 - - 22 12 - - SSW 993,6 10 0 0,0
25.10.2020 17:00:00 10,1 6,4 - - 22 12 - - S 993,5 30 0 0,0
25.10.2020 16:00:00 11,1 5,9 - - 16 9 - - SSW 993,3 30 12 0,0
25.10.2020 15:00:00 12,2 5,6 - - 18 10 - - SW 993,2 40 54 0,0
25.10.2020 14:00:00 12,6 5,5 - - 29 16 - - SSW 992,8 35 42 0,0
25.10.2020 13:00:00 12,8 6,0 - - 35 19 50 27 SSW 993,2 10 60 0,0
25.10.2020 12:00:00 12,4 6,2 - - 31 17 46 25 SSW 993,2 35 60 0,0
25.10.2020 11:00:00 11,5 7,0 - - 31 17 - - SSW 993,5 30 24 0,0
25.10.2020 10:00:00 10,4 5,7 - - 35 19 50 27 SSW 993,6 30 54 0,0
25.10.2020 09:00:00 9,2 6,4 10,7 12,2 31 17 - - SSW 993,5 27 60 0,0
25.10.2020 08:00:00 7,9 5,8 - - 31 17 - - SSW 993,5 10 18 0,0
25.10.2020 07:00:00 7,0 5,4 - - 28 15 - - S 993,2 27 0 0,0
25.10.2020 06:00:00 6,8 5,3 - - 21 11 - - SSW 992,9 10 0 0,0
25.10.2020 05:00:00 7,5 5,6 - - 21 11 - - SSW 993,1 30 0 0,0
25.10.2020 04:00:00 6,8 5,2 - - 21 11 - - S 993,1 10 0 0,0
25.10.2020 03:00:00 7,7 5,3 - - 22 12 - - SW 992,7 35 0 0,0
25.10.2020 02:00:00 8,3 6,5 - - 22 12 - - SSW 992,9 35 0 0,0
25.10.2020 01:00:00 8,6 7,0 - - 16 9 - - SW 992,7 30 0 0,0
25.10.2020 00:00:00 - - - - - - - - - - - - -
24.10.2020 23:00:00 9,5 7,9 - - 16 9 - - SW 992,1 35 0 0,0
24.10.2020 22:00:00 10,2 8,4 - - 21 11 - - WSW 991,8 35 0 0,4
24.10.2020 21:00:00 10,7 9,1 - - 29 16 - - SW 991,4 17 0 2,4
24.10.2020 20:00:00 12,2 10,6 - - 28 15 48 26 SSW 990,8 13 0 0,4
24.10.2020 19:00:00 12,7 10,3 - - 35 19 46 25 SSW 991,1 10 0 0,0
24.10.2020 18:00:00 12,9 10,5 - - 35 19 52 28 SSW 991,4 40 0 0,2
24.10.2020 17:00:00 11,7 10,9 - - 26 14 63 34 SSW 991,8 40 0 3,8
24.10.2020 16:00:00 13,8 12,7 - - 41 22 57 31 S 991,4 9 0 0,2
24.10.2020 15:00:00 14,2 12,0 - - 37 20 59 32 S 993,3 10 0 0,0
24.10.2020 14:00:00 14,3 11,9 - - 39 21 55 30 S 995,0 10 0 0,0
24.10.2020 13:00:00 13,9 11,2 - - 41 22 61 33 S 996,2 30 0 0,0
24.10.2020 12:00:00 13,5 10,8 - - 41 22 61 33 S 997,2 30 0 -
24.10.2020 11:00:00 13,2 10,2 - - 39 21 55 30 S 998,5 30 0 0,0
24.10.2020 10:00:00 11,6 9,2 - - 35 19 50 27 S 999,4 28 0 0,0
24.10.2020 09:00:00 10,5 8,1 10,7 12,5 35 19 52 28 S 1000,2 24 0 0,0
24.10.2020 08:00:00 9,2 8,0 - - 29 16 - - S 1000,7 24 0 0,0
24.10.2020 07:00:00 6,0 5,2 - - 22 12 - - SSE 1001,3 19 0 0,0
24.10.2020 06:00:00 5,7 4,6 - - 24 13 - - S 1002,1 10 0 0,0
24.10.2020 05:00:00 5,3 3,2 - - 22 12 - - S 1003,7 22 0 0,0
24.10.2020 04:00:00 5,5 4,1 - - 21 11 - - S 1003,9 23 0 0,0
24.10.2020 03:00:00 5,8 4,5 - - 21 11 - - SSE 1004,7 23 0 0,0
24.10.2020 02:00:00 6,7 4,5 - - 22 12 - - S 1006,1 23 0 0,0
24.10.2020 01:00:00 6,2 3,5 - - 18 10 - - SSW 1006,7 25 0 0,0
24.10.2020 00:00:00 6,8 3,9 - - 18 10 - - SSW 1007,1 10 - 0,0
23.10.2020 23:00:00 7,2 4,4 - - 21 11 - - SSW 1007,6 24 0 0,0
23.10.2020 22:00:00 7,3 4,9 - - 21 11 - - SSW 1007,7 10 0 0,0
23.10.2020 21:00:00 6,6 4,9 - - 11 6 - - S 1007,9 10 0 0,0
23.10.2020 20:00:00 7,6 4,7 - - 9 5 - - WSW 1007,5 10 0 0,0
23.10.2020 19:00:00 7,2 4,3 - - 8 4 - - SW 1007,1 10 0 0,0
23.10.2020 18:00:00 9,1 5,3 - - 11 6 - - WSW 1006,6 29 0 0,0
23.10.2020 17:00:00 10,3 5,9 - - 11 6 - - W 1005,8 30 12 0,0
23.10.2020 16:00:00 12,2 8,8 - - 16 9 - - WSW 1004,8 10 6 0,0
23.10.2020 15:00:00 12,4 9,3 - - 22 12 - - SW 1004,2 10 0 0,0
23.10.2020 14:00:00 12,4 9,7 - - 24 13 - - SW 1003,9 10 6 0,0
23.10.2020 13:00:00 11,8 10,6 - - 15 8 - - SSW 1004,3 10 6 0,2
23.10.2020 12:00:00 10,9 9,5 - - 13 7 - - SW 1004,9 10 0 0,0
23.10.2020 11:00:00 10,6 9,6 - - 16 9 - - WSW 1005,5 10 0 0,0
23.10.2020 10:00:00 10,3 9,8 - - 15 8 - - WSW 1005,2 9 0 0,2
23.10.2020 09:00:00 9,6 9,2 11,2 12,5 18 10 - - SW 1005,2 10 0 0,0
23.10.2020 08:00:00 8,1 7,7 - - 8 4 - - S 1005,3 5 0 0,4
23.10.2020 07:00:00 7,4 7,0 - - 11 6 - - SE 1005,4 6 0 0,0
23.10.2020 06:00:00 7,5 6,8 - - 9 5 - - S 1006,1 5 0 0,2
23.10.2020 05:00:00 7,6 6,2 - - 8 4 - - S 1006,8 10 0 0,0
23.10.2020 04:00:00 7,3 5,6 - - 8 4 - - S 1007,0 10 0 0,0
23.10.2020 03:00:00 6,9 4,7 - - 8 4 - - S 1007,8 22 0 0,0
23.10.2020 02:00:00 6,6 4,2 - - 9 5 - - SSW 1008,5 23 0 0,0
23.10.2020 01:00:00 6,5 3,0 - - 9 5 - - SSW 1008,9 30 0 0,0
23.10.2020 00:00:00 6,9 3,3 - - 11 6 - - SW 1009,0 10 - 0,0
22.10.2020 23:00:00 6,7 4,1 - - 13 7 - - SSW 1009,2 26 0 0,0
22.10.2020 22:00:00 7,5 4,8 - - 13 7 - - SW 1009,4 26 0 0,0
22.10.2020 21:00:00 7,6 5,4 - - 9 5 - - SW 1009,3 25 0 0,0
22.10.2020 20:00:00 8,4 6,1 - - 9 5 - - SW 1009,1 30 0 0,0
22.10.2020 19:00:00 9,0 5,8 - - 11 6 - - W 1008,9 10 0 0,0
22.10.2020 18:00:00 10,5 7,1 - - 9 5 - - W 1008,5 30 0 0,0
22.10.2020 17:00:00 10,9 6,9 - - 11 6 - - W 1007,8 10 0 0,0
22.10.2020 16:00:00 11,7 6,4 - - 15 8 - - W 1007,1 30 0 0,0
22.10.2020 15:00:00 12,3 6,0 - - 28 15 46 25 WSW 1006,6 35 30 0,0

tt = Température de l'air
td = dewpoint
tt -20cm = Température de l'air -20cm
tt -100cm = Température de l'air -100cm
ff = Vitesse du vent
fx = gusts
dd = Direction du vent
ppp = reduced air pressure
vv = visibility
sd = Ensoleillement
rr = Quantités de précipitations

stations d'obs. à proximité